Wind_Speed
3 3 3 4 4 4 4 4 3 3 4 4 4 3 4 4 4 5 6 6 6 6 6 6 6 6 6 6 6 5 5 5 6 6 6 6 6 6 6 7 7 8 8
2 2 2 2 2 2 3 3 3 3 3 3 4 3 4 5 5 5 6 6 6 7 7 7 7 6 6 7 7 6 6 6 6 6 6 7 7 7 8 9 9 9 9
1 1 2 2 2 2 3 3 3 3 3 4 4 4 5 5 5 5 6 7 7 7 7 7 7 8 7 7 8 8 7 7 7 8 8 8 8 9 9 9 10 10 10
1 0 2 2 2 3 3 3 3 4 4 5 4 4 5 6 6 6 6 7 7 7 8 9 9 9 9 9 9 9 9 9 9 9 10 10 10 10 10 10 11 11 11
2 2 1 2 2 3 3 4 4 5 5 5 5 5 6 6 7 8 8 8 8 9 10 10 10 10 11 11 11 11 11 11 12 12 12 12 12 12 12 12 13 13 13
2 2 1 1 2 3 4 4 4 5 6 6 6 7 7 7 8 9 9 10 11 11 11 12 12 12 12 13 13 13 13 13 14 14 14 14 14 14 14 15 15 15 15
2 2 2 2 3 3 4 5 5 6 6 7 8 8 9 9 9 10 11 12 12 12 13 13 13 14 14 14 15 15 15 15 15 15 16 16 16 16 16 16 17 16 16
3 3 4 4 4 5 5 6 7 7 7 8 8 9 10 10 11 11 11 12 13 13 14 15 15 15 17 17 17 17 16 17 17 17 18 18 18 18 18 18 19 19 19
4 4 5 5 6 7 7 8 8 9 9 10 10 11 11 12 13 13 13 14 15 15 16 16 17 17 17 17 18 19 19 18 18 18 19 19 20 20 20 20 20 21 21
5 5 5 6 7 8 8 9 9 10 11 11 12 13 14 14 15 15 16 16 16 17 18 18 18 18 18 18 19 19 19 19 19 20 21 21 21 22 22 22 22 22 22
6 6 6 6 7 8 8 9 10 11 12 12 12 13 14 15 16 17 17 17 18 18 19 19 20 20 20 19 21 21 21 21 21 22 22 22 22 23 23 23 22 22 22
8 7 7 7 8 8 9 10 11 11 11 12 13 13 14 14 15 16 17 18 19 19 19 19 20 20 20 20 22 23 23 23 23 23 23 23 22 23 23 23 23 23 24
9 9 8 8 8 8 9 10 11 11 12 12 13 13 13 14 15 15 16 17 18 19 19 19 19 20 21 21 22 23 23 24 24 24 23 23 24 24 24 24 24 25 25
10 10 9 9 9 9 10 10 10 11 12 13 14 14 14 14 15 15 16 17 17 18 19 20 20 21 21 21 22 23 24 24 25 25 25 24 25 26 26 25 26 26 27
11 10 10 10 10 9 10 10 11 12 12 13 13 13 14 14 15 15 16 16 17 18 19 19 20 20 21 22 23 24 24 24 24 25 26 26 27 27 26 26 27 27 28
12 11 11 11 11 11 11 11 11 12 13 13 13 14 14 15 15 16 16 16 17 18 18 19 20 20 21 22 22 24 25 24 24 25 25 26 26 26 26 26 27 27 28
13 12 12 13 12 12 12 12 12 13 13 13 14 14 15 16 16 16 16 17 17 18 19 20 21 21 21 23 24 24 25 25 25 26 26 27 27 26 26 27 27 28 28
14 14 14 14 14 13 13 13 13 13 14 15 15 15 16 16 16 16 17 17 18 18 19 20 21 22 22 23 23 23 24 25 26 27 28 28 27 26 26 27 28 29 29
14 15 14 15 15 15 14 14 14 14 15 15 16 16 17 17 17 18 18 18 18 19 20 20 21 22 22 22 22 23 24 25 26 26 26 26 26 26 27 28 29 30 30
15 15 15 15 15 15 15 15 15 15 15 16 17 17 17 18 19 19 19 19 19 19 20 20 21 22 22 21 22 23 24 25 26 26 26 27 27 27 28 29 30 30 30
16 16 16 17 16 16 17 16 15 15 16 17 17 17 18 18 19 19 19 20 20 21 20 20 20 21 21 22 22 22 23 24 25 25 26 26 26 27 27 29 30 30 31
18 17 18 18 18 18 18 17 17 17 17 17 18 18 18 18 18 19 19 19 19 19 20 20 21 21 22 21 21 22 23 24 24 25 27 28 28 28 28 29 30 31 31
19 19 19 19 19 19 18 18 18 18 18 18 19 18 18 19 19 19 20 20 19 19 19 19 20 21 21 22 22 23 24 25 25 26 27 27 28 29 29 30 31 32 32
20 20 20 21 21 20 20 19 19 19 19 19 19 19 19 19 19 20 20 20 19 19 19 20 21 21 22 22 22 23 24 25 26 27 27 28 28 29 29 30 31 31 31
21 20 21 20 20 20 20 19 19 19 19 19 19 19 19 20 20 20 20 20 20 20 20 21 21 22 22 23 23 24 25 26 27 27 28 29 29 29 30 31 31 32 32
22 21 21 21 20 20 20 20 20 20 20 20 20 20 20 20 20 20 20 20 20 20 21 22 22 23 24 24 25 25 26 27 28 28 29 30 30 31 31 31 31 32 33
Wind_Direction
113 119 122 132 140 151 158 156 154 167 175 185 197 209 216 208 203 202 201 202 202 204 207 211 208 209 212 215 219 222 230 240 245 247 254 258 263 264 267 268 267 264 264
116 132 132 144 156 167 166 168 175 184 184 204 216 220 225 222 216 208 206 207 209 212 212 216 217 218 224 228 232 237 243 247 245 247 255 262 265 265 268 268 268 269 270
108 153 156 182 202 203 193 193 205 208 208 220 229 234 231 225 217 214 214 217 217 218 221 224 227 230 235 235 238 242 245 248 251 254 258 264 267 268 269 268 267 267 268
61 203 192 197 205 208 213 219 227 228 222 227 236 239 231 227 226 227 226 229 228 230 231 233 236 238 240 242 244 245 250 255 260 262 263 264 266 269 270 270 269 269 270
49 37 188 208 226 227 226 230 235 235 236 239 240 242 243 241 238 237 239 241 243 244 244 243 244 242 244 246 249 251 255 259 263 263 264 264 265 268 270 271 270 270 271
32 10 318 235 240 242 239 240 239 242 249 252 251 253 255 254 250 247 252 253 251 250 251 250 251 251 249 249 251 253 256 259 263 265 265 265 266 269 269 269 269 269 269
338 326 317 279 262 258 252 251 251 253 257 258 257 257 259 259 259 258 258 259 259 257 255 254 253 254 253 252 254 256 258 261 264 266 266 267 268 269 270 268 268 268 267
326 316 311 297 285 277 269 260 256 257 259 261 260 258 258 260 261 261 263 264 263 261 259 255 254 255 255 255 256 258 262 264 266 267 268 268 269 270 270 271 270 271 269
335 320 306 294 285 277 272 271 267 263 263 262 262 263 263 262 265 266 266 267 265 263 262 258 255 256 256 257 258 261 260 264 266 269 270 270 271 272 271 272 271 271 271
332 322 307 297 289 285 278 274 271 268 269 269 267 267 269 269 268 269 270 269 268 268 266 262 260 261 261 260 259 260 263 262 264 268 270 270 271 271 271 271 271 272 271
334 323 311 303 296 291 285 283 276 273 272 273 275 276 276 274 271 270 270 270 269 269 269 267 266 266 265 263 261 261 264 266 266 267 269 270 270 269 271 272 271 272 272
335 326 319 313 305 299 295 289 285 281 279 277 278 278 280 279 276 275 274 272 272 270 269 267 268 268 267 267 266 263 265 267 267 267 268 270 270 271 273 272 271 272 272
344 334 326 321 315 307 300 296 295 292 287 283 280 280 281 281 281 279 278 276 273 272 268 267 268 267 268 269 269 268 267 268 268 268 268 269 270 271 271 272 271 271 272
346 341 332 329 322 316 311 305 299 298 296 290 284 284 283 283 285 283 281 281 277 272 270 270 269 268 269 269 270 270 269 270 271 268 269 269 271 272 272 271 271 271 271
346 344 340 332 328 323 318 312 307 302 300 297 293 290 289 288 286 285 284 283 281 278 275 273 273 271 269 272 273 271 271 274 274 271 271 270 270 270 271 271 271 271 272
344 342 340 335 326 323 318 313 308 305 303 300 297 293 289 287 287 287 286 285 283 281 279 277 278 277 275 274 273 272 271 272 272 274 273 272 273 272 271 270 270 271 272
338 334 334 333 327 320 317 314 310 304 303 301 298 295 294 292 292 291 288 287 285 283 282 281 280 278 276 277 276 275 274 274 275 274 274 274 275 274 272 271 272 273 273
335 331 329 328 326 322 317 315 312 307 304 303 299 298 297 295 295 294 293 290 288 285 283 281 280 279 279 278 277 275 275 277 275 274 276 276 275 275 275 274 273 273 273
329 328 327 326 323 321 317 313 311 309 308 305 302 301 301 298 296 293 293 294 293 288 284 283 283 283 282 279 277 277 276 276 275 276 277 277 276 277 276 276 276 275 274
327 325 325 325 324 323 321 313 305 306 306 305 305 305 303 300 298 294 294 294 293 292 289 287 287 285 283 282 281 280 280 280 280 279 280 280 279 278 277 277 277 277 278
324 322 322 322 321 320 320 316 311 308 306 306 304 302 301 301 299 296 294 294 293 292 290 290 290 289 288 286 285 283 284 284 284 283 282 284 282 281 281 280 279 278 279
320 319 318 319 319 319 319 316 312 310 307 305 305 303 301 300 300 300 299 297 296 296 293 290 290 290 289 287 286 286 286 286 286 285 285 285 284 284 283 283 282 282 282
316 315 315 316 317 317 316 316 314 313 312 308 307 304 302 303 302 301 301 300 299 298 298 296 294 293 292 291 289 288 288 289 288 288 288 287 286 285 284 284 283 283 283
315 314 314 314 314 315 313 313 312 313 312 309 307 306 305 305 304 303 302 300 297 296 295 295 295 296 296 295 294 293 292 291 291 289 288 288 287 287 286 286 286 286 286
315 313 312 311 313 314 313 313 312 311 311 310 308 306 305 305 305 303 301 300 297 295 294 295 295 296 296 296 294 293 292 292 292 292 291 290 288 287 287 287 287 287 287
312 314 313 312 312 312 311 311 311 310 308 308 306 305 305 305 305 303 301 299 298 296 295 296 297 297 297 296 294 294 294 293 292 291 290 289 288 288 288 288 288 288 289
Height
5886 5886 5886 5886 5886 5887 5887 5887 5887 5887 5888 5888 5888 5888 5888 5888 5888 5889 5889 5889 5890 5890 5891 5891 5892 5892 5892 5892 5893 5893 5893 5893 5893 5893 5893 5893 5893 5893 5892 5892 5892 5891 5891
5887 5887 5886 5886 5887 5887 5887 5887 5887 5887 5888 5888 5888 5888 5888 5888 5888 5888 5888 5889 5889 5889 5890 5890 5891 5891 5891 5891 5892 5892 5892 5892 5892 5892 5892 5892 5891 5891 5891 5890 5890 5890 5889
5887 5887 5886 5886 5887 5887 5887 5887 5887 5887 5887 5887 5887 5887 5887 5887 5887 5887 5888 5888 5888 5888 5889 5889 5889 5890 5890 5890 5890 5890 5891 5891 5890 5890 5890 5890 5889 5889 5888 5888 5888 5888 5887
5887 5886 5886 5886 5886 5886 5886 5887 5887 5887 5886 5886 5887 5887 5887 5887 5887 5887 5887 5887 5887 5887 5887 5888 5888 5888 5888 5888 5888 5889 5889 5889 5888 5888 5888 5888 5887 5887 5886 5886 5885 5885 5885
5887 5886 5885 5885 5885 5886 5886 5886 5886 5886 5886 5886 5886 5886 5885 5886 5885 5885 5885 5886 5886 5886 5886 5886 5886 5886 5886 5886 5886 5887 5886 5886 5886 5886 5885 5885 5885 5884 5884 5883 5883 5882 5882
5886 5886 5885 5885 5885 5885 5885 5885 5885 5885 5884 5884 5884 5884 5884 5884 5884 5883 5883 5884 5883 5883 5883 5883 5883 5883 5883 5884 5884 5884 5884 5883 5883 5883 5882 5882 5882 5881 5881 5880 5879 5879 5878
5886 5885 5885 5884 5884 5884 5883 5883 5883 5883 5883 5883 5883 5883 5882 5882 5882 5882 5881 5881 5881 5880 5880 5880 5880 5881 5880 5880 5880 5880 5880 5880 5880 5879 5879 5878 5878 5877 5877 5876 5875 5875 5874
5885 5884 5883 5883 5883 5882 5882 5881 5881 5881 5881 5881 5881 5880 5880 5881 5880 5879 5879 5878 5877 5877 5877 5877 5877 5877 5877 5877 5877 5877 5876 5876 5876 5875 5874 5874 5874 5873 5873 5872 5871 5870 5870
5883 5883 5882 5881 5881 5881 5880 5879 5879 5879 5878 5878 5878 5878 5878 5877 5877 5876 5875 5875 5874 5873 5873 5873 5873 5873 5872 5873 5873 5872 5872 5871 5871 5870 5870 5869 5869 5868 5867 5867 5866 5865 5865
5882 5881 5880 5880 5879 5878 5878 5877 5876 5876 5876 5875 5875 5875 5875 5874 5874 5873 5872 5871 5870 5869 5869 5868 5868 5868 5868 5868 5868 5868 5867 5867 5866 5866 5865 5864 5864 5863 5862 5861 5860 5860 5859
5881 5880 5879 5878 5877 5876 5875 5874 5874 5873 5872 5872 5871 5871 5870 5870 5870 5869 5868 5867 5866 5865 5864 5864 5863 5863 5863 5863 5863 5862 5862 5861 5861 5860 5860 5859 5858 5857 5856 5856 5855 5854 5853
5880 5878 5877 5876 5875 5874 5873 5872 5871 5870 5869 5869 5868 5867 5867 5866 5865 5864 5863 5863 5862 5861 5860 5859 5859 5858 5858 5858 5857 5857 5856 5855 5855 5855 5854 5853 5852 5851 5850 5850 5849 5848 5847
5878 5877 5875 5874 5872 5871 5870 5869 5868 5867 5866 5865 5864 5863 5863 5862 5861 5860 5859 5858 5857 5856 5855 5855 5854 5853 5853 5852 5851 5850 5850 5849 5849 5848 5847 5847 5846 5845 5844 5843 5843 5842 5841
5877 5875 5873 5872 5870 5869 5868 5866 5865 5864 5863 5862 5860 5859 5858 5858 5857 5856 5855 5853 5852 5851 5850 5849 5848 5848 5847 5846 5846 5845 5844 5843 5843 5842 5841 5840 5840 5839 5838 5837 5836 5835 5835
5875 5873 5871 5870 5868 5866 5865 5863 5862 5861 5859 5858 5857 5856 5854 5853 5852 5851 5850 5848 5848 5846 5845 5844 5843 5842 5841 5840 5839 5838 5838 5837 5836 5835 5834 5833 5833 5832 5831 5830 5829 5829 5828
5873 5871 5869 5867 5865 5864 5862 5860 5859 5857 5856 5854 5853 5852 5850 5849 5848 5846 5845 5843 5842 5841 5840 5839 5837 5836 5835 5834 5833 5832 5831 5830 5829 5828 5828 5826 5826 5825 5824 5823 5822 5821 5820
5871 5869 5867 5865 5863 5861 5859 5857 5855 5854 5852 5850 5849 5847 5846 5845 5843 5841 5840 5838 5837 5835 5834 5833 5832 5831 5829 5828 5827 5826 5825 5824 5823 5822 5821 5819 5818 5817 5816 5815 5814 5813 5812
5868 5866 5864 5862 5859 5857 5855 5853 5851 5850 5848 5847 5845 5843 5841 5840 5838 5837 5835 5833 5831 5830 5828 5827 5826 5825 5823 5822 5821 5820 5818 5817 5816 5814 5813 5812 5811 5810 5809 5808 5807 5806 5805
5865 5863 5861 5858 5855 5853 5851 5849 5847 5846 5844 5842 5840 5838 5837 5835 5834 5832 5830 5828 5826 5824 5822 5821 5820 5818 5817 5816 5814 5813 5812 5811 5809 5807 5806 5805 5803 5802 5801 5800 5799 5798 5797
5862 5860 5857 5855 5852 5850 5847 5845 5843 5841 5840 5838 5836 5834 5832 5830 5829 5827 5825 5823 5821 5819 5817 5816 5814 5812 5811 5809 5808 5807 5805 5804 5802 5800 5799 5797 5796 5795 5793 5792 5791 5789 5788
5859 5856 5854 5851 5849 5846 5844 5841 5839 5837 5835 5833 5831 5829 5827 5825 5823 5821 5819 5817 5815 5814 5812 5810 5808 5806 5804 5803 5801 5800 5799 5797 5795 5793 5792 5790 5788 5787 5785 5783 5782 5780 5779
5855 5853 5850 5848 5845 5842 5840 5837 5835 5832 5830 5828 5826 5824 5822 5820 5818 5816 5814 5812 5810 5808 5806 5804 5802 5800 5798 5796 5795 5793 5792 5791 5789 5787 5785 5783 5781 5779 5777 5775 5773 5772 5770
5851 5849 5846 5843 5841 5838 5835 5833 5830 5828 5826 5823 5821 5819 5817 5814 5812 5810 5808 5806 5804 5802 5801 5799 5797 5794 5792 5790 5789 5787 5785 5783 5782 5780 5777 5775 5773 5771 5769 5766 5764 5762 5760
5847 5844 5841 5839 5836 5833 5831 5828 5826 5823 5821 5818 5816 5814 5811 5809 5807 5805 5803 5801 5799 5797 5795 5793 5791 5789 5786 5784 5782 5780 5778 5776 5774 5772 5770 5768 5765 5763 5761 5758 5755 5753 5751
5842 5839 5837 5834 5831 5828 5826 5823 5821 5818 5816 5813 5811 5808 5806 5803 5801 5799 5797 5795 5793 5791 5788 5786 5784 5782 5780 5778 5775 5773 5771 5769 5767 5764 5762 5760 5757 5754 5752 5749 5746 5743 5741
5837 5834 5831 5829 5826 5823 5821 5818 5816 5813 5811 5808 5805 5803 5800 5798 5795 5793 5791 5788 5786 5784 5782 5780 5778 5775 5773 5771 5768 5766 5763 5761 5759 5756 5754 5751 5748 5745 5743 5740 5737 5734 5731